Regional Weather Roundup
Issued by NWS Columbia, SC

Current Version | Previous Version | Text Only | Print | Product List | Glossary On
Versions: 1 2 3 4 5 6 7 8 9 10 11 12 13 14 15 16 17 18 19 20 21 22 23 24 25 26 27
000
ASUS42 KCAE 312010
RWRCAE
REGIONAL WEATHER ROUNDUP
NATIONAL WEATHER SERVICE COLUMBIA SC
400 PM EDT TUE MAY 31 2016

NOTE: "FAIR" INDICATES FEW OR NO CLOUDS BELOW 12,000 FEET WITH NO
SIGNIFICANT WEATHER AND/OR OBSTRUCTIONS TO VISIBILITY.

NOT ALL STATIONS ARE QUALITY CONTROLLED BY THE NATIONAL
WEATHER SERVICE. USE DATA WITH CAUTION...ESPECIALLY
DEWPOINT OBSERVATIONS.

SCZ001>056-GAZ040-063>065-077-312100-
...UPSTATE SOUTH CAROLINA...

CITY           SKY/WX    TMP DP  RH WIND       PRES   REMARKS
ANDERSON       MOSUNNY   87  66  49 VRB7      29.93F
LIBERTY        CLEAR     87  64  46 CALM      29.93F
SPARTANBURG    PTSUNNY   84  63  48 NE3       29.94F
CLEMSON        SUNNY     89  62  40 MISG      29.94F
GREENVILLE     CLOUDY    85  64  49 SE7       29.95F
GREENWOOD      SUNNY     88  64  44 VRB5      29.94F
GREER          CLOUDY    78  64  61 E8        29.94F
ROCK HILL      SUNNY     88  65  46 N6        29.93F
CHESTER        PTCLDY    86  63  45 E5        29.93F
LAURENS        PTCLDY    88  66  48 SW5       29.93F


...CENTRAL SOUTH CAROLINA...

CITY           SKY/WX    TMP DP  RH WIND       PRES   REMARKS
COLUMBIA APT   PTSUNNY   89  64  43 SE3       29.89F
COLUMBIA OWENS PTSUNNY   90  65  43 MISG      29.90F
MCENTIRE ANGB  PTSUNNY   88  67  49 VRB6      29.90F
ORANGEBURG     MOSUNNY   88  67  49 CALM      29.90F
SUMTER SHAW    MOSUNNY   88  68  51 NE3       29.87F
NEWBERRY       PTCLDY    86  66  51 W5        29.94F
AIKEN          FAIR      88  66  48 W6        29.95F
BARNWELL       FAIR      90  73  58 CALM      29.91F HX  98
MANNING        FAIR      84  66  54 N7        29.89F
LANCASTER      PTCLDY    86  66  51 NE9       29.92F
WINNSBORO      PTCLDY    86  64  48 CALM      29.91F


...EASTERN AND COASTAL SOUTH CAROLINA...

CITY           SKY/WX    TMP DP  RH WIND       PRES   REMARKS
MYRTLE BEACH   PTSUNNY   73  64  73 NE7       29.90F
N MYRTLE BCH   CLOUDY    75  72  90 NE8       29.87F
CONWAY         HVY RAIN  73  70  88 E10G16    29.89S VSB 1
MARION         FAIR      84  68  58 N8        29.89S
HARTSVILLE     FAIR      82  68  61 NE6       29.90S
FLORENCE       MOSUNNY   88  68  51 N12       29.89F
DARLINGTON     MOSUNNY   86  71  60 VRB3      29.90F
CHARLESTON APT PTSUNNY   89  69  51 NW12      29.89S
MOUNT PLEASANT MOCLDY    79  72  78 NE8       29.90R
WALTERBORO     PTCLDY    86  68  54 NW6       29.91S
BEAUFORT       MOSUNNY   88  70  55 NW8       29.90F


...EASTERN GEORGIA...

CITY           SKY/WX    TMP DP  RH WIND       PRES   REMARKS
AUGUSTA BUSH F PTSUNNY   87  66  49 NW6       29.90F
AUGUSTA DANIEL   N/A     88  68  51 S7        29.92F
THOMSON        MOSUNNY   92  68  45 N6        29.95F HX  96
WASHINGTON     FAIR      93  66  40 W3        29.91F HX  96
CLAXTON        FAIR      91  71  52 N8        29.89F HX  97
SYLVANIA       PTCLDY    89  70  52 NW3       29.91F
STATESBORO     SUNNY     90  71  54 NE5       29.90F HX  96
SAVANNAH       MOSUNNY   90  69  50 VRB5      29.89F


...SOUTHERN NORTH CAROLINA...

CITY           SKY/WX    TMP DP  RH WIND       PRES   REMARKS
CHARLOTTE      PTSUNNY   85  62  46 VRB6G16   29.93F
WADESBORO      PTCLDY    86  63  46 N8        29.91F
ROCKINGHAM     LGT RAIN  81  70  68 CALM      29.91S
RUTHERFORDTON  PTSUNNY   79  66  64 S6        29.96F
ASHEVILLE      CLOUDY    76  60  57 CALM      30.02F

$$




USA.gov is the U.S. government's official web portal to all federal, state and local government web resources and services.